Kaindy

Kyrgyzstan     42˚49′52″N   73˚40′46″E
temp.,
°C
wind,
m/s
gust,
m/s
humid.,
%
clouds,
%
prec.,
mm/h
press.,
hPa
HPBL,
m
28 november, sat
sat2800:00+2˚sw1157100 0.0 102225
03:00+2˚wsw1155100 0.0 102323
06:00+1˚wsw2262100 0.0 102523
09:00−1˚nnw2296100 0.3 103184
12:00−2˚wnw4998100 5.7 1036882
15:00−2˚sw3693100 3.4 1038595
18:00−3˚wsw2595100 5.8 1042190
21:00−4˚w2495100 0.7 1043121
29 november, sun
sun2900:00−7˚wsw119197 0.9 104328
03:00−6˚sse1195100 0.6 104327
06:00−7˚sse2290100 0.8 104521
09:00−7˚s117885 0.0 104521
12:00−5˚nne118651 0.0 1043207
15:00−5˚ne119465 0.0 1042228
18:00−7˚ese129074 0.1 104328
21:00−9˚ese128119 0.0 104324
30 november, mon
mon3000:00−9˚sse127526 0.0 104221
03:00−10˚sse11710 0.0 104121
06:00−10˚se12683 0.0 104124
09:00−10˚se12660 0.0 104021
12:00−5˚ne01720 0.0 103899
15:00−6˚nne11860 0.0 1036140
18:00−10˚se11843 0.0 103621
21:00−10˚sse11650 0.0 103621
1 december, tue
tue100:00−10˚sse11637 0.0 103521
03:00−10˚sse116378 0.0 103421
06:00−9˚se125789 0.0 103321
09:00−8˚ese1260100 0.0 103322
12:00−5˚ene1171100 0.0 103170
15:00−5˚n018295 0.0 103093
18:00−7˚ese017286 0.0 103222
21:00−4˚ese236397 0.0 103326
2 december, wed
wed200:00−3˚se135895 0.0 103324
03:00−4˚se125977 0.0 103323
06:00−2˚se125788 0.0 103323
09:00−2˚sse1258100 0.0 103324
12:00+2˚ese118289 0.0 103134
15:00+2˚ese117995 0.0 102929
18:00se226597 0.0 102923
21:00ssw1257100 0.0 102923